GFSMW_con_lsi_198.txt.gz
Lid_Strength_Index
2 2 1 1 1 0 1 1 1 1 1 1 2 2 2 1 1 0 0 -0 -0 -0 -0 0 0 0 1 1 1 1 1 1 1 2 2 1 1 1 1 0 0 0 -0
3 2 2 1 1 1 1 1 1 1 1 1 1 1 1 1 1 0 0 0 -0 -0 0 0 1 0 1 1 1 1 2 2 1 3 3 5 3 2 1 1 1 1 0
3 3 2 2 1 2 2 1 1 1 1 1 1 1 1 1 2 1 1 0 0 -0 0 0 0 0 0 1 1 1 1 3 1 1 3 5 6 4 2 1 1 1 1
3 3 2 2 2 2 1 1 1 1 1 1 1 2 3 3 2 2 1 1 0 0 0 0 0 0 0 1 1 1 1 1 3 2 1 2 2 5 6 2 2 1 1
3 3 2 2 2 1 1 1 1 1 1 1 1 2 2 2 2 1 1 1 1 0 0 0 0 0 0 1 1 1 1 1 2 2 2 2 2 2 4 6 4 2 1
3 3 2 2 2 1 1 1 2 2 1 1 1 2 2 2 2 2 2 1 1 1 0 0 0 0 0 1 1 1 1 1 1 1 2 2 3 4 4 5 4 4 2
3 3 3 3 3 2 2 1 2 2 1 2 2 2 2 2 2 2 2 2 2 1 1 1 1 1 0 0 0 1 1 1 1 1 2 1 2 2 2 3 4 4 3
3 3 3 3 3 2 2 2 2 2 2 2 2 1 1 2 2 2 2 2 2 1 1 1 0 0 0 0 0 0 1 1 1 1 1 1 1 1 2 3 4 5 4
4 4 4 3 2 1 2 2 2 2 2 2 2 2 1 2 2 1 1 1 1 1 1 1 1 0 0 0 1 1 1 1 1 1 2 1 1 1 1 1 2 4 6
4 5 4 3 2 2 2 1 1 1 2 2 2 2 2 1 1 1 2 2 1 1 1 1 1 1 1 1 1 1 1 1 1 1 2 1 1 1 1 1 1 2 3
4 4 3 3 3 2 2 2 2 2 2 2 2 2 2 1 1 1 1 1 1 1 1 1 2 1 2 2 2 2 2 1 2 2 3 2 1 1 1 1 1 2 3
4 3 3 3 3 2 2 2 2 2 2 2 2 2 2 1 2 2 1 1 1 1 1 1 2 2 2 2 2 3 2 2 3 3 3 2 1 1 1 1 2 2 2
4 4 3 3 3 3 3 2 2 2 2 2 2 2 2 2 2 2 1 1 1 1 1 1 2 2 3 3 3 3 1 2 3 3 4 2 1 2 1 1 2 2 2
4 4 4 3 3 3 3 2 2 2 2 2 2 2 2 2 2 1 1 1 1 1 1 1 2 2 3 3 3 4 2 3 3 4 3 2 1 1 1 1 2 2 3
4 4 4 4 3 3 3 2 2 2 2 2 2 3 2 2 1 2 1 1 2 1 1 1 2 2 4 4 4 4 3 3 4 4 4 5 4 4 5 2 1 2 3
5 4 4 4 4 3 3 2 2 2 2 2 3 2 2 2 2 2 2 2 1 1 1 2 2 3 4 9 7 4 4 3 4 7 7 6 6 6 6 6 6 6 4
4 4 4 4 3 3 3 3 2 2 2 3 3 2 2 2 2 2 2 2 2 2 2 2 3 3 5 10 9 6 4 4 5 7 7 7 5 5 7 7 6 6 6
4 4 4 4 3 2 2 2 2 2 2 3 3 2 2 2 2 2 2 2 2 2 2 3 3 5 7 10 10 8 4 4 5 5 5 6 4 5 5 5 5 5 6
4 3 3 3 3 2 2 2 2 2 3 3 3 2 2 2 3 3 2 2 2 3 3 3 5 6 8 10 10 6 5 5 5 5 5 4 5 9 9 4 7 8 8
3 3 3 3 3 3 2 3 3 3 3 3 2 2 2 2 3 2 2 2 3 4 3 4 6 7 8 11 11 7 6 6 7 8 9 8 7 9 9 5 5 7 7
3 3 3 3 3 2 2 3 3 3 2 2 2 2 2 2 2 2 2 2 3 4 4 4 6 6 7 9 11 10 6 6 7 9 10 9 10 10 10 8 4 6 6
3 3 4 4 3 2 3 3 3 2 2 2 2 2 2 2 3 3 2 3 4 4 5 6 7 7 8 10 12 11 9 8 9 9 9 9 11 11 10 9 11 10 10
4 4 4 5 4 2 2 4 3 2 2 2 3 3 2 2 2 3 4 4 4 5 6 7 8 8 9 9 12 13 12 10 8 9 10 11 12 11 11 11 11 11 7
5 5 4 5 5 3 2 2 2 2 2 3 3 3 3 3 3 4 4 4 5 6 6 7 8 9 9 9 10 10 11 12 12 12 10 10 9 10 9 9 9 8 6
7 6 6 5 4 3 3 2 2 2 3 3 3 3 4 3 4 4 4 4 4 5 6 6 7 9 10 10 10 10 10 11 12 11 9 9 8 9 9 8 8 7 7
7 7 6 5 4 3 3 2 2 2 3 4 4 4 4 3 4 7 7 11 8 10 10 9 8 8 11 13 13 13 14 14 13 11 9 8 9 9 8 8 7 7 8

GFSMW_con_lsi_201.txt.gz
Lid_Strength_Index
4 4 3 2 2 2 2 2 2 2 1 2 3 2 2 1 1 1 1 0 1 0 1 0 1 1 1 1 1 1 2 2 2 4 4 3 2 2 2 2 1 1 1
5 4 4 3 3 2 2 2 2 2 2 1 2 2 1 1 1 0 1 1 1 0 1 1 1 1 1 1 1 1 2 2 3 4 5 6 4 2 2 2 2 2 1
6 5 5 5 3 3 2 2 2 2 1 1 1 2 3 1 1 1 1 1 1 0 0 0 1 1 1 1 2 2 2 4 3 3 3 6 7 4 3 2 2 2 2
5 5 5 5 4 3 2 2 2 2 1 1 2 2 3 3 2 2 1 1 0 0 0 0 0 1 1 1 1 1 2 4 5 2 2 3 4 6 6 3 3 2 2
6 6 5 4 4 3 3 2 2 2 2 1 2 2 3 2 2 1 1 1 1 0 0 0 1 1 1 1 1 1 2 2 4 4 3 4 4 4 6 6 5 3 2
7 6 5 4 3 3 3 3 2 2 2 2 2 2 2 2 2 2 2 2 1 1 0 0 0 1 1 1 1 1 2 2 2 2 3 5 7 5 5 6 6 5 5
6 5 4 4 4 4 4 2 3 3 2 2 2 2 2 2 2 2 2 2 2 1 1 1 1 1 1 1 1 2 2 3 3 4 5 5 6 4 5 5 6 6 4
5 5 5 4 4 3 4 3 3 3 2 2 2 2 2 1 2 2 2 2 2 1 1 1 1 1 1 1 2 2 2 3 3 5 4 5 6 5 4 5 6 7 5
6 6 5 4 4 4 4 2 3 3 2 2 2 2 2 2 2 2 1 1 1 1 1 1 1 1 2 2 2 2 3 4 4 4 4 6 6 5 4 4 5 7 8
6 5 4 5 4 3 4 3 3 2 2 2 2 2 2 2 1 1 2 1 1 1 1 1 1 2 2 2 3 3 4 4 4 4 5 6 7 6 4 4 4 6 6
6 6 4 4 3 4 4 3 3 3 2 2 2 2 2 2 1 2 2 1 1 1 1 2 2 3 3 3 3 4 4 4 5 5 6 6 5 6 4 4 5 5 5
6 6 5 5 4 3 3 3 3 2 2 2 2 2 2 3 2 2 2 1 2 1 1 2 3 3 3 3 4 4 4 5 6 4 6 5 5 5 5 5 5 5 5
6 6 5 5 4 3 3 3 2 2 2 2 2 3 2 2 2 2 2 1 3 1 1 2 3 3 3 4 4 4 5 6 5 5 6 6 6 7 5 5 5 5 4
5 5 5 5 4 4 3 3 3 2 2 2 3 3 3 2 2 2 1 1 1 1 1 2 3 3 3 4 5 5 6 6 5 5 5 5 6 5 5 5 5 5 5
6 5 5 5 4 4 4 3 3 2 2 3 3 3 2 3 2 2 2 1 1 1 2 3 3 4 4 4 5 5 6 7 5 6 6 8 6 5 5 4 6 6 7
6 5 5 4 4 4 3 3 3 3 2 2 3 2 2 2 2 2 2 2 2 2 3 3 3 3 3 8 8 6 6 7 6 8 8 9 8 8 7 5 5 5 8
6 5 5 4 4 4 3 3 3 3 2 3 3 2 2 3 3 2 2 2 2 2 3 3 3 3 4 10 10 8 7 7 8 9 9 9 9 10 9 6 6 6 6
5 5 5 4 4 3 3 3 3 2 3 3 3 2 4 3 3 2 2 2 2 3 3 3 2 3 7 10 10 8 7 8 9 9 9 9 11 11 10 7 8 9 9
5 4 4 4 4 4 4 3 3 3 3 3 3 3 5 3 3 3 3 2 2 3 3 3 3 5 8 10 10 7 7 8 8 7 8 9 10 11 10 8 10 11 11
4 4 4 4 4 3 4 4 4 3 3 3 3 2 5 4 3 3 2 2 2 3 3 3 4 6 8 12 10 8 7 8 8 10 8 10 11 12 10 9 10 11 11
4 3 4 4 4 4 3 4 4 4 3 2 2 2 2 2 2 2 2 2 2 3 4 5 6 6 7 9 10 9 7 8 10 10 10 12 12 12 10 9 9 10 10
5 4 5 5 4 4 4 5 4 3 2 2 2 3 2 2 2 2 2 2 3 3 5 7 7 7 8 10 11 10 9 10 10 11 12 13 13 13 10 8 10 11 9
5 5 5 5 4 4 5 5 5 2 2 3 3 3 2 2 2 3 3 3 3 4 6 6 7 8 7 11 12 12 12 11 10 12 13 14 14 14 11 11 10 10 10
6 5 5 6 6 5 5 5 4 2 3 3 3 3 3 3 3 2 2 3 3 5 6 7 8 8 9 11 10 10 11 12 12 12 13 13 13 11 10 11 10 11 10
7 6 7 7 7 6 5 4 3 2 3 3 3 3 3 3 3 2 3 3 3 5 6 7 7 9 10 10 11 10 10 11 13 14 13 14 13 11 11 9 9 10 10
8 8 7 7 7 6 6 4 3 2 3 4 4 3 3 3 3 3 5 10 8 10 10 10 8 8 11 13 13 13 14 14 14 13 13 13 13 12 11 10 11 10 10

GFSMW_con_lsi_207.txt.gz
Lid_Strength_Index
6 6 5 4 4 5 4 5 3 2 2 3 3 3 2 2 2 1 1 1 0 0 1 1 1 1 3 2 1 2 2 2 2 4 5 4 3 4 4 4 3 2 1
8 6 5 5 4 4 4 5 6 6 3 2 3 3 3 2 2 1 2 1 1 0 1 1 2 1 2 1 2 2 3 3 3 5 6 6 5 5 4 4 3 3 2
8 7 6 5 4 4 4 3 3 3 6 4 3 3 3 3 3 3 3 1 1 1 1 0 1 1 1 2 1 2 2 3 4 4 6 7 7 7 4 4 5 5 3
7 7 7 7 6 4 3 3 3 3 2 3 2 3 3 4 3 3 2 2 1 1 1 1 1 1 1 2 1 1 2 3 4 4 4 6 6 7 7 5 5 5 4
8 8 6 5 5 4 4 3 3 3 2 3 2 2 3 2 2 3 3 3 2 1 1 1 1 1 1 1 2 2 3 3 3 5 5 7 7 8 7 7 7 5 4
7 6 6 5 4 5 5 5 4 4 4 2 2 2 2 2 3 3 3 3 2 2 2 1 1 1 1 1 1 1 2 3 4 5 5 6 7 9 9 7 8 7 5
7 6 6 6 5 5 5 4 4 4 4 4 2 2 2 2 2 2 2 3 2 1 1 1 1 1 0 0 0 1 2 3 4 4 5 7 8 8 8 8 8 8 7
6 6 5 5 5 5 5 5 5 5 4 3 3 3 2 2 2 2 2 2 2 1 1 1 1 1 0 0 1 1 1 3 3 4 6 7 8 8 7 6 8 9 8
6 6 5 5 5 5 5 5 5 4 4 3 3 3 2 2 2 2 1 1 1 1 1 1 1 1 1 1 1 1 2 2 4 5 6 7 8 8 7 6 6 7 9
7 6 6 5 6 5 5 5 4 4 4 3 3 2 2 2 1 1 2 2 1 1 1 1 1 1 1 1 1 1 2 3 5 6 8 8 8 8 7 7 8 9 8
7 7 5 5 5 5 5 5 4 4 3 3 3 3 3 2 1 2 1 1 1 1 1 1 1 1 1 1 1 2 3 4 6 7 7 9 8 8 7 8 9 9 7
7 7 6 5 5 5 5 5 5 4 3 3 2 2 2 2 2 2 2 1 1 1 1 1 1 1 1 1 1 2 4 4 6 7 7 8 8 8 7 7 8 8 8
7 7 6 6 6 6 5 4 4 4 3 2 3 3 2 2 3 2 1 1 1 1 1 1 2 2 2 2 1 2 3 4 5 6 6 7 8 8 7 9 9 8 8
7 7 7 7 6 5 5 4 4 3 3 2 3 3 3 2 3 3 1 1 1 2 1 1 1 1 1 1 1 2 3 4 6 5 6 7 8 6 7 8 8 9 9
6 7 7 7 6 6 5 4 4 3 3 2 3 3 3 2 2 2 2 1 1 2 1 1 2 2 1 2 2 3 4 5 6 6 6 7 6 5 5 7 8 10 10
7 6 5 5 5 5 4 4 3 3 3 3 3 2 2 2 3 2 2 2 2 2 2 2 2 2 1 6 6 4 4 5 6 7 7 7 4 5 6 6 7 8 10
6 6 5 5 5 5 5 4 4 4 4 4 3 3 3 3 2 2 2 2 2 2 2 2 2 2 2 8 8 7 5 6 6 7 7 7 6 6 7 8 8 8 8
6 6 5 5 5 4 4 4 4 4 4 4 4 3 3 3 2 2 2 2 2 2 2 2 2 2 3 9 10 8 5 6 6 7 7 8 8 7 8 10 10 11 12
4 4 4 4 4 4 4 4 4 4 4 4 4 3 3 3 3 3 3 3 3 2 2 2 2 2 6 10 10 7 6 7 7 8 9 8 8 10 10 10 13 14 13
4 4 3 4 4 4 5 5 5 4 4 4 3 3 2 3 3 3 3 3 2 2 2 2 2 4 6 10 10 7 6 8 9 10 11 10 8 12 11 12 12 13 13
4 3 3 4 3 5 5 6 5 5 4 4 4 3 3 3 2 2 2 2 3 3 3 3 3 4 7 9 10 10 7 8 10 11 12 9 11 12 12 12 11 12 13
4 3 4 4 4 5 5 5 5 4 4 4 4 3 4 3 2 2 2 2 3 3 3 4 5 5 6 9 11 11 9 10 9 11 11 10 13 13 12 12 13 13 12
4 3 4 5 5 5 5 6 5 4 4 4 4 4 4 3 2 3 3 3 3 3 4 5 6 7 7 8 11 12 12 11 9 11 12 13 14 13 12 13 13 13 12
6 6 6 6 6 5 5 6 5 4 4 5 5 5 5 4 2 2 2 3 3 4 3 5 6 7 8 8 8 9 9 11 10 11 12 12 12 12 13 12 12 12 12
7 7 8 8 8 6 6 6 5 5 5 5 5 5 5 3 3 3 3 3 2 3 3 4 6 7 8 8 9 9 9 9 11 11 12 12 11 12 12 12 12 12 12
10 10 10 10 9 8 7 7 6 5 6 6 6 5 5 4 3 3 5 10 7 9 9 8 6 6 8 11 12 12 13 13 13 11 12 12 11 12 12 12 13 13 12

GFSMW_con_lsi_210.txt.gz
Lid_Strength_Index
6 6 5 4 5 4 6 3 2 2 3 3 3 2 2 2 2 1 1 1 0 -0 0 0 1 1 1 1 0 1 1 1 2 4 4 3 3 3 2 3 2 1 2
7 7 6 5 4 4 4 2 3 3 2 2 2 2 2 1 1 1 1 1 0 -0 0 0 1 1 1 1 1 1 2 1 2 3 4 5 3 3 2 3 3 1 2
8 7 6 5 4 4 5 4 5 5 3 2 2 3 2 3 2 2 2 1 1 1 1 0 1 1 1 1 1 1 1 3 2 2 3 6 6 5 4 4 4 2 3
8 7 7 6 5 4 3 3 2 2 2 3 3 3 3 3 2 2 1 1 1 1 1 1 1 1 1 1 1 0 1 2 3 3 3 4 4 5 6 4 4 4 3
7 7 6 5 5 4 4 4 3 3 2 2 2 2 2 2 1 2 1 1 1 1 1 1 1 1 1 1 1 1 1 1 2 2 3 4 6 6 5 6 6 4 4
7 6 5 4 4 5 4 4 3 3 3 2 1 2 2 2 2 2 2 2 1 1 1 1 1 1 1 1 1 0 1 1 1 2 3 4 5 7 7 7 7 6 4
7 6 6 5 4 4 4 4 4 3 3 2 2 2 1 2 2 2 2 2 2 1 1 1 1 1 1 0 1 1 1 1 2 3 3 3 4 6 7 6 8 6 5
7 6 6 5 5 4 4 4 4 4 3 2 2 2 2 1 1 1 1 2 2 1 1 1 0 0 0 0 0 1 1 1 1 3 3 3 4 5 6 7 7 6 7
7 6 5 5 5 5 4 4 4 3 3 3 2 2 1 1 1 1 1 1 1 1 1 0 1 1 0 0 0 1 1 1 1 1 3 3 4 5 6 6 5 4 7
8 7 6 5 5 5 4 4 4 3 3 2 2 2 1 1 1 1 1 1 1 1 1 1 1 1 1 1 1 1 1 1 1 1 3 4 6 6 6 6 5 3 6
8 7 7 6 5 5 5 4 4 4 4 3 2 2 1 1 1 1 1 1 1 1 1 1 1 1 1 1 1 1 1 2 1 2 3 4 7 7 7 7 6 4 6
8 7 8 7 5 5 4 5 5 5 4 3 2 1 1 1 1 1 1 1 1 1 1 1 1 1 1 1 1 2 1 2 2 3 5 6 6 7 7 8 6 5 6
8 7 6 6 5 5 5 5 5 4 3 2 2 2 2 2 2 1 1 1 2 1 1 1 1 1 1 1 1 1 1 2 2 4 5 6 7 7 8 8 7 6 6
7 6 7 6 6 6 5 5 4 3 3 2 2 2 2 2 2 2 1 1 1 1 1 1 1 1 1 1 1 1 1 2 3 4 5 7 6 7 8 7 7 6 7
7 7 7 6 6 5 5 4 4 3 2 3 2 2 2 2 2 2 2 1 1 1 1 1 1 1 1 1 1 1 2 4 5 5 5 6 6 6 7 7 7 6 8
6 6 5 5 5 4 4 4 4 3 3 3 3 2 2 2 2 2 2 2 1 1 1 1 2 2 1 5 6 2 3 4 5 6 6 6 6 7 8 7 6 7 8
6 6 5 5 5 5 4 5 4 3 4 3 3 2 2 2 2 2 2 2 2 1 2 2 2 2 2 8 8 6 3 5 6 6 7 6 6 7 7 8 6 8 8
6 6 5 5 5 4 4 4 3 3 3 3 3 3 3 3 2 2 2 2 2 2 2 2 2 2 2 9 9 8 4 5 5 6 7 6 7 7 7 6 7 8 8
6 5 4 4 4 4 3 3 3 3 3 3 3 3 3 3 3 3 3 2 2 2 2 2 2 2 2 9 9 5 4 5 6 6 6 6 7 11 11 7 9 10 10
5 5 4 4 3 3 3 3 3 4 4 3 3 3 3 3 3 3 2 2 2 2 2 2 2 3 2 10 9 5 4 6 7 7 7 9 9 12 12 7 9 10 10
5 4 4 4 3 3 3 4 3 4 3 3 3 3 4 4 3 3 2 2 2 2 2 2 2 4 4 7 9 8 5 6 8 8 8 9 13 13 12 10 9 10 9
5 4 4 4 3 2 4 4 5 4 4 4 4 3 4 3 3 2 2 2 2 3 3 3 3 3 5 9 10 9 8 8 8 9 9 10 14 14 13 10 13 12 10
6 5 6 6 5 5 4 5 5 4 4 4 5 4 3 4 3 3 3 3 3 3 3 4 4 4 6 6 10 11 11 11 8 9 10 13 15 15 13 13 13 11 10
8 8 8 8 8 7 6 7 6 5 4 4 4 3 3 3 3 3 3 3 3 3 4 4 4 3 6 8 9 8 9 11 10 11 13 13 13 13 12 12 10 9 9
9 9 9 10 10 9 9 8 7 7 6 5 5 4 4 4 5 4 4 3 2 3 3 4 4 5 7 8 9 9 8 9 10 11 12 13 13 13 12 11 10 10 10
10 10 11 11 11 10 9 8 8 7 7 7 6 6 5 5 4 4 3 6 9 8 9 9 5 5 9 12 12 12 13 13 13 11 12 13 13 13 13 12 11 10 11

GFSMW_con_lsi_216.txt.gz
Lid_Strength_Index
2 1 1 0 0 -0 -0 -0 -0 -0 0 0 1 0 1 -0 -0 -1 -1 -1 -1 -1 -1 -0 -0 -0 0 -0 -1 -0 0 0 -0 1 1 1 -0 -0 -0 -1 -0 -1 -1
2 2 1 1 0 0 0 -0 -0 -0 0 -0 -0 -0 -0 -0 -1 -1 -1 -1 -1 -1 -1 -1 -0 -0 0 0 -0 -0 1 1 -0 2 1 4 2 1 0 -0 -0 -1 -1
3 2 2 1 1 1 0 0 0 -0 -0 -1 -0 0 -0 -0 0 -0 -0 -1 -1 -1 -1 -1 -1 -1 -0 1 0 1 0 2 1 0 2 4 5 3 1 1 0 -0 -0
3 2 2 2 1 1 0 -0 -0 -0 -0 -1 -0 -0 1 1 0 -0 -1 -1 -1 -1 -1 -1 -1 -1 -1 -0 0 -0 0 1 2 1 1 0 1 4 4 1 1 0 0
3 3 2 2 1 1 1 0 -0 -0 -0 -0 -1 1 1 0 0 -0 -1 -1 -1 -1 -1 -1 -1 -1 -0 -1 -0 -0 0 0 1 2 1 1 1 1 3 4 3 1 0
3 2 2 1 1 1 1 0 0 0 -0 -0 -0 0 0 0 1 0 1 0 -0 -1 -1 -1 -1 -1 -1 -0 -0 -0 0 0 0 1 1 2 2 3 3 3 3 3 1
3 2 2 2 1 1 1 1 0 1 -0 -0 -0 -0 -0 -0 -0 0 0 0 0 -0 -1 -1 -1 -0 -1 -1 -1 -0 -0 0 1 1 2 1 1 1 1 2 3 3 2
3 2 2 2 1 1 1 1 0 1 0 -0 -0 -0 -0 0 0 -0 -1 -0 0 -0 -2 -1 -1 -1 -1 -1 -1 -0 0 -0 0 0 0 1 1 1 1 2 3 4 3
3 2 2 2 1 1 1 1 0 0 0 -0 -0 -0 -0 -1 -0 -1 -1 -0 -1 -1 -1 -1 -1 -1 -1 -1 -1 0 -0 -0 0 0 0 1 1 0 1 1 1 3 5
3 2 2 2 1 1 0 0 0 0 0 0 -0 -0 -0 -1 -1 -1 -1 -1 -1 -1 -1 -1 -1 -1 -1 -1 -1 -0 -0 0 0 1 0 1 1 0 0 1 1 1 3
3 2 2 1 1 1 1 0 0 0 0 0 -0 -0 -0 -0 -1 -0 -1 -1 -1 -1 -1 -1 -1 -0 -0 -0 -0 -0 0 0 0 0 1 1 0 1 1 1 1 1 2
3 2 2 2 1 1 1 1 1 1 0 0 0 0 -0 -0 -0 -0 -1 -1 -1 -1 -1 -1 -1 -0 -0 -0 -0 1 0 1 1 1 1 1 1 1 1 1 1 1 1
3 3 3 2 2 1 1 1 1 1 0 0 0 0 0 -0 -0 -0 -1 -1 -1 -1 -1 -1 -0 -0 -0 -0 -0 0 0 0 0 0 1 1 1 1 1 1 1 1 1
4 4 3 3 2 2 1 1 1 1 0 0 0 0 0 0 -0 -0 -1 -1 -1 -0 -0 -0 -0 -0 -0 -0 -0 -0 0 0 0 0 0 0 1 1 1 1 1 1 2
4 3 3 2 2 2 1 1 1 1 0 1 1 0 0 -0 -0 -0 -0 -0 -0 -0 -0 -0 -0 -0 -0 0 -0 -0 0 1 1 0 0 0 1 2 1 1 1 2 2
4 3 3 2 2 2 2 2 1 1 0 1 1 0 0 0 0 -0 0 -0 0 -0 -0 0 0 0 0 2 3 1 1 0 1 1 1 0 1 2 6 5 3 3 2
4 3 3 2 2 2 1 2 1 0 1 1 1 1 0 1 0 0 0 0 1 0 0 0 0 0 -0 4 4 3 0 1 1 1 1 1 1 2 2 6 5 5 6
4 3 3 3 2 2 1 1 1 1 1 1 1 1 1 1 1 1 1 1 1 1 1 1 0 0 0 4 4 4 0 1 1 0 0 1 1 1 2 4 4 4 4
4 3 3 2 2 2 1 1 1 2 1 1 1 1 1 1 1 1 1 1 1 1 1 1 1 1 0 4 5 4 1 1 1 0 0 1 1 5 8 5 4 5 6
3 3 2 2 2 2 1 2 2 2 2 1 1 1 1 1 1 1 1 1 1 1 1 1 0 1 1 3 5 4 1 1 2 1 1 7 2 10 10 5 6 7 7
3 3 3 3 3 2 2 2 2 2 1 1 1 1 1 1 1 1 1 1 1 1 1 1 1 1 1 1 5 6 1 2 2 2 2 4 9 11 11 8 5 7 8
3 3 4 4 3 3 3 4 4 2 2 2 1 1 1 1 1 1 1 1 1 2 2 2 2 1 1 3 3 6 7 3 2 2 2 4 11 11 10 8 11 11 9
3 4 4 4 4 4 5 6 5 4 4 4 3 3 2 3 2 1 2 2 2 2 2 2 2 2 1 1 5 7 9 9 2 2 5 9 11 10 10 11 12 10 7
4 5 5 6 6 5 5 5 5 5 5 5 5 5 4 4 3 3 3 3 3 3 3 2 2 2 2 1 1 1 5 9 4 7 7 9 9 9 9 10 10 7 7
5 6 7 8 7 7 8 7 8 8 9 9 8 8 8 7 7 6 4 3 2 2 3 3 2 2 2 2 3 3 2 3 5 7 8 8 8 10 10 9 7 7 7
6 7 8 8 9 9 9 9 10 10 10 10 10 10 9 8 7 6 5 6 6 5 6 6 4 1 5 8 8 9 9 9 10 6 8 7 9 9 10 9 8 7 8

GFSMW_con_lsi_219.txt.gz
Lid_Strength_Index
2 1 1 0 -0 -0 -0 -0 -0 -0 -0 0 1 0 1 -0 -0 -1 -1 -1 -1 -1 -1 -0 -1 -1 0 0 -0 0 1 1 0 1 2 1 0 -0 -0 -0 -0 -1 -1
2 2 1 0 0 0 0 0 0 0 -0 0 -0 -0 -1 -0 -0 -1 -1 -2 -1 -2 -1 -1 -1 -1 0 0 0 1 2 1 0 2 2 4 2 1 0 -0 0 -0 -1
3 2 2 1 1 1 1 0 0 0 0 -1 -0 -1 -1 -0 0 -0 -0 -1 -1 -1 -2 -1 -1 -1 -0 0 0 0 1 3 1 1 2 4 5 3 1 1 0 0 0
2 2 2 1 1 1 0 -0 0 0 0 -0 -0 -0 1 1 0 -0 -0 -1 -1 -1 -1 -1 -1 -1 -0 -1 0 -0 0 1 2 1 1 1 1 4 5 2 1 0 1
2 2 2 2 1 1 0 0 0 0 -0 -0 -0 1 1 0 -0 -0 -2 -2 -1 -1 -1 -1 -1 -1 -0 -1 -0 -1 0 0 1 1 1 2 2 1 3 5 3 1 1
2 2 2 1 1 1 1 0 0 -0 -0 -0 0 0 0 0 1 0 0 0 -0 -0 -1 -1 -1 -1 -1 -0 -0 -1 -0 0 0 1 1 2 3 3 4 4 3 3 2
3 2 2 2 1 1 1 1 1 1 0 0 0 0 0 -0 0 -0 1 -0 0 0 -1 -2 -1 -0 -1 -1 -1 -1 -0 0 1 1 1 1 1 1 2 3 4 4 2
2 2 2 2 2 1 1 1 1 1 0 0 0 -0 -0 0 0 -0 -0 0 0 -1 -2 -1 -1 -1 -1 -1 -1 -0 0 -0 0 1 1 1 1 1 1 2 3 5 4
3 2 2 2 1 1 1 1 1 0 0 0 0 -0 -0 -0 -0 -1 -1 -0 -1 -1 -1 -1 -1 -1 -1 -1 -1 0 0 0 0 0 0 1 1 0 1 1 1 3 6
3 2 2 2 1 1 0 0 0 0 0 -0 -0 0 -0 -0 -1 -1 -0 -1 -1 -1 -1 -1 -1 -1 -1 -1 -1 -0 -0 0 0 0 0 1 0 0 0 1 1 1 3
3 3 2 1 1 1 1 0 0 0 0 0 0 -0 0 -0 -1 -0 -0 -1 -1 -1 -1 -1 -1 -1 -0 -1 -0 -0 0 1 0 0 1 1 0 1 1 1 1 1 2
3 3 2 2 1 1 1 1 1 1 0 0 0 0 -0 -0 0 -0 -0 -1 -1 -1 -1 -1 -0 -0 -0 -1 -0 0 0 1 1 1 1 1 1 1 1 1 1 1 1
3 2 2 2 2 1 1 1 1 1 0 0 0 0 0 0 0 0 -0 -1 -0 -0 -1 -0 -0 -0 -0 -0 -0 -0 0 0 0 1 1 1 1 1 1 1 1 1 1
3 3 2 2 2 1 1 1 1 1 0 0 0 1 1 0 0 0 -0 -0 -0 -0 -0 -0 -0 -0 -0 -0 -0 -0 0 0 0 0 0 0 1 1 1 1 1 1 2
4 3 3 2 2 2 1 1 1 1 0 1 1 0 -0 -0 0 0 -0 -0 -0 -0 -0 -0 -0 -0 -0 0 -0 -0 0 0 1 0 0 0 1 2 1 1 1 1 2
4 3 3 3 3 2 2 1 1 1 0 1 1 0 0 0 0 0 0 0 0 0 0 0 0 0 0 3 4 1 0 0 1 1 0 0 1 2 5 5 4 1 2
4 4 3 3 2 2 1 2 1 0 1 1 1 1 1 1 1 0 0 1 1 0 1 1 1 1 0 4 5 4 0 0 1 1 1 1 0 1 0 5 5 5 6
4 3 3 3 2 1 1 1 1 1 1 1 1 1 1 1 1 1 1 1 1 1 1 1 1 1 1 4 6 5 0 0 0 0 1 1 1 1 1 1 1 1 3
3 3 2 2 1 2 1 2 2 2 1 1 1 1 1 1 1 1 1 1 1 1 1 1 1 1 1 5 6 4 0 1 1 0 0 1 1 3 8 1 2 2 3
2 3 2 1 2 2 1 2 2 2 2 1 1 1 1 1 1 1 1 1 1 1 1 1 1 2 1 4 6 4 1 1 1 1 0 4 1 7 9 1 2 4 6
2 2 2 2 2 2 2 3 2 3 2 1 1 1 1 1 1 1 1 1 1 1 1 1 1 1 1 1 6 6 1 1 1 1 1 1 8 11 10 6 2 4 5
2 2 2 2 2 2 2 3 3 2 2 2 2 2 1 1 1 1 1 1 2 2 2 2 2 1 1 3 3 6 6 2 1 2 1 1 10 10 11 8 9 10 7
2 2 2 2 2 3 3 4 3 3 3 3 4 3 3 3 2 2 2 2 2 2 2 2 2 2 1 1 4 5 7 6 2 1 2 6 10 11 10 10 11 9 5
3 3 3 4 4 3 3 4 4 4 5 6 6 5 5 6 5 4 3 3 3 3 3 3 3 2 2 1 1 1 1 6 4 2 2 5 7 8 7 9 8 5 5
3 4 4 4 5 4 4 4 5 6 7 7 7 8 8 8 8 7 6 6 4 4 2 2 2 2 3 2 4 4 1 1 3 2 4 7 7 6 7 7 6 5 5
4 5 7 7 6 6 6 6 6 7 8 9 10 10 10 9 8 8 8 9 9 9 9 9 6 3 6 7 7 6 9 9 9 5 6 7 7 7 7 7 6 5 5

GFSMW_con_lsi_222.txt.gz
Lid_Strength_Index
2 1 1 1 1 1 1 1 1 1 1 1 1 1 1 1 0 0 1 3 1 -0 -0 -0 -0 -0 0 0 0 0 1 1 1 2 2 1 1 3 1 -0 0 -0 -0
3 2 2 1 1 1 1 1 1 1 1 1 1 0 1 0 -0 -0 -0 -0 -1 -1 -0 -0 0 0 0 1 1 1 1 1 1 3 3 5 3 2 1 0 1 0 0
3 3 2 2 1 2 2 1 1 1 1 0 0 0 0 0 0 1 0 -0 -0 -0 -0 -0 -0 0 0 1 1 1 1 3 1 1 3 6 6 4 2 1 1 1 0
3 2 3 2 2 2 1 1 1 1 1 0 1 1 2 2 1 1 0 0 -0 -0 -0 -0 -0 -0 0 0 1 0 1 1 3 1 1 1 2 5 6 2 1 1 1
3 3 2 2 2 1 1 1 1 1 1 1 1 1 1 1 1 1 1 1 0 -0 -1 -0 -0 0 0 0 0 1 1 1 2 2 2 2 2 2 4 6 4 2 1
3 2 2 2 1 1 1 1 1 1 1 1 1 1 2 1 1 1 2 1 1 0 -0 -0 -0 -0 0 0 0 0 1 1 1 1 2 2 3 4 4 5 4 4 2
3 3 2 2 2 2 1 2 2 2 1 1 1 1 1 1 1 1 1 1 1 1 1 0 0 0 -0 -0 -0 0 1 1 1 1 2 1 2 2 2 3 4 4 3
3 3 3 2 2 2 2 1 2 2 1 1 1 1 1 1 1 1 1 1 1 0 -0 -0 -0 -0 -0 -0 -0 0 1 0 1 1 1 1 1 1 1 3 3 5 4
3 3 2 2 2 2 2 2 2 2 1 1 1 1 1 1 1 0 0 0 -0 -0 -0 -0 -0 -0 -0 -0 0 1 1 1 1 1 1 1 1 1 1 1 2 4 6
3 3 3 2 2 2 1 1 1 2 1 1 1 1 1 1 0 1 1 0 0 -0 -0 -0 -0 -0 -0 0 0 1 0 1 1 1 1 1 1 1 1 1 1 2 3
3 3 3 2 2 2 1 1 1 1 1 1 1 1 1 1 0 1 1 0 -0 0 0 0 0 0 0 0 0 1 1 1 1 1 1 1 1 1 1 1 1 2 2
3 3 3 2 2 2 2 1 -0 -0 0 0 1 1 1 1 1 1 1 0 1 0 0 0 0 0 0 0 1 1 1 1 1 1 1 2 1 1 1 1 2 2 2
3 3 3 3 2 2 2 1 1 1 1 1 1 1 1 1 1 1 1 0 1 1 0 0 1 1 0 0 0 1 1 1 1 1 1 1 1 2 1 2 2 2 2
5 4 4 3 2 2 2 2 1 1 1 1 1 1 1 1 1 1 1 1 0 1 1 0 0 0 0 0 0 0 1 1 1 1 1 1 1 2 2 2 2 2 2
5 5 5 3 3 1 2 2 1 1 1 1 2 2 1 1 1 1 1 1 1 1 0 1 1 0 0 1 1 1 1 1 1 1 1 1 1 2 1 1 2 2 2
5 4 4 4 3 3 2 2 2 1 1 1 2 1 1 1 1 1 1 1 1 1 1 1 1 1 1 3 4 1 1 1 1 2 1 1 1 1 4 4 4 2 2
5 5 4 4 3 2 1 2 2 1 1 1 1 1 1 1 1 1 2 2 1 1 1 1 1 1 1 5 6 5 1 1 1 1 1 1 1 2 1 4 6 6 5
4 4 4 3 2 2 2 1 1 1 1 2 1 1 1 1 1 1 1 1 1 1 1 1 1 1 1 5 7 6 1 1 1 1 1 1 1 1 1 1 2 1 2
4 3 3 2 2 2 1 2 2 2 2 2 2 1 1 1 1 2 2 1 2 2 2 1 1 2 1 6 7 6 1 1 1 1 1 1 1 3 6 1 2 2 2
3 3 3 2 2 2 1 2 2 2 2 2 2 1 1 1 2 2 2 1 1 2 1 1 1 2 1 5 7 6 1 2 2 1 1 3 2 5 7 2 2 3 2
3 2 2 2 2 1 1 2 2 2 2 1 1 2 1 1 1 1 1 1 2 2 2 2 1 1 1 1 7 8 1 2 2 2 2 1 4 7 7 8 1 2 2
3 2 3 3 2 1 2 2 3 2 1 2 2 3 3 3 3 2 2 2 2 2 2 2 2 1 1 4 5 8 8 3 2 2 1 1 6 9 10 9 7 9 6
3 3 3 3 2 2 2 3 3 3 3 3 3 3 3 3 3 3 3 4 3 2 3 3 3 2 1 1 4 6 7 7 3 1 2 5 7 9 10 11 10 9 4
3 3 3 3 3 2 2 3 3 2 3 4 4 4 5 5 5 4 4 4 4 4 4 3 3 3 2 2 1 1 2 5 3 3 2 2 4 5 5 9 8 3 3
3 3 4 4 4 4 4 4 4 4 5 5 6 6 6 6 6 6 5 5 5 5 5 5 5 4 3 2 4 3 2 3 3 3 2 2 2 2 4 4 4 3 4
5 5 5 5 6 6 5 5 5 5 6 6 6 7 7 7 7 8 8 8 9 9 10 10 8 6 8 8 7 7 7 7 8 2 3 3 3 3 4 4 5 4 5